| time (UTC) | temp C | wind direction | speed KPH | gust KPH | rain 1hr cm | rain 24hr cm | rain mn cm | humidity % | barometer mb |
| 20260508005306 | 9 | 257 | 0.0 | 0.0 | 0.00 | 0.05 | 0.05 | 55 | 1005.5 |
| 20260508004802 | 8 | 268 | 0.0 | 0.0 | 0.00 | 0.05 | 0.05 | 55 | 1005.2 |
| 20260508004258 | 9 | 265 | 0.0 | 0.0 | 0.00 | 0.05 | 0.05 | 54 | 1005.1 |
| 20260508003755 | 9 | 256 | 0.0 | 0.0 | 0.00 | 0.05 | 0.05 | 56 | 1005.0 |
| 20260508003252 | 9 | 281 | 0.0 | 0.0 | 0.00 | 0.05 | 0.05 | 55 | 1004.7 |
| 20260508002748 | 10 | 266 | 0.0 | 0.0 | 0.00 | 0.05 | 0.05 | 51 | 1004.8 |
| 20260508002246 | 10 | 255 | 0.0 | 0.0 | 0.00 | 0.05 | 0.05 | 50 | 1004.6 |
| 20260508001742 | 10 | 271 | 0.0 | 0.0 | 0.00 | 0.05 | 0.05 | 44 | 1004.7 |
| 20260508001237 | 11 | 262 | 0.0 | 0.0 | 0.00 | 0.05 | 0.05 | 45 | 1004.5 |
| 20260508000734 | 11 | 271 | 0.0 | 0.0 | 0.00 | 0.05 | 0.05 | 44 | 1004.3 |
| 20260508000234 | 11 | 261 | 0.0 | 0.0 | 0.00 | 0.05 | 0.05 | 44 | 1004.3 |
| 20260507235727 | 11 | 264 | 0.0 | 0.0 | 0.00 | 0.05 | 0.05 | 44 | 1004.5 |
| 20260507235225 | 11 | 271 | 0.0 | 1.6 | 0.00 | 0.05 | 0.05 | 41 | 1004.2 |
| 20260507234722 | 11 | 267 | 0.0 | 0.0 | 0.00 | 0.05 | 0.05 | 43 | 1003.9 |
| 20260507234219 | 12 | 270 | 0.0 | 0.0 | 0.00 | 0.05 | 0.05 | 40 | 1004.1 |
| 20260507233715 | 12 | 304 | 0.0 | 1.6 | 0.00 | 0.05 | 0.05 | 45 | 1004.1 |
| 20260507233213 | 12 | 268 | 0.0 | 0.0 | 0.00 | 0.05 | 0.05 | 40 | 1004.0 |
| 20260507232710 | 12 | 260 | 0.0 | 0.0 | 0.00 | 0.05 | 0.05 | 42 | 1003.8 |
| 20260507232207 | 12 | 290 | 0.0 | 0.0 | 0.00 | 0.05 | 0.05 | 44 | 1003.6 |
| 20260507231704 | 13 | 260 | 0.0 | 0.0 | 0.00 | 0.05 | 0.05 | 39 | 1003.8 |
| 20260507231200 | 13 | 267 | 0.0 | 0.0 | 0.00 | 0.05 | 0.05 | 38 | 1003.7 |
| 20260507230657 | 13 | 270 | 0.0 | 0.0 | 0.00 | 0.05 | 0.05 | 39 | 1003.5 |
| 20260507230155 | 13 | 250 | 0.0 | 0.0 | 0.00 | 0.05 | 0.05 | 35 | 1003.6 |
| 20260507225654 | 13 | 294 | 1.6 | 1.6 | 0.00 | 0.05 | 0.05 | 35 | 1003.6 |
| 20260507225151 | 14 | 215 | 4.8 | 4.8 | 0.00 | 0.05 | 0.05 | 36 | 1003.4 |
| 20260507224646 | 14 | 252 | 4.8 | 8.0 | 0.00 | 0.05 | 0.05 | 32 | 1003.3 |
| 20260507224143 | 14 | 289 | 0.0 | 1.6 | 0.00 | 0.05 | 0.05 | 33 | 1003.1 |
| 20260507223639 | 15 | 272 | 1.6 | 1.6 | 0.00 | 0.05 | 0.05 | 36 | 1003.0 |
| 20260507223137 | 14 | 270 | 0.0 | 0.0 | 0.00 | 0.05 | 0.05 | 33 | 1003.0 |
| 20260507222633 | 15 | 258 | 1.6 | 1.6 | 0.00 | 0.05 | 0.05 | 34 | 1002.8 |
| 20260507222130 | 15 | 278 | 1.6 | 1.6 | 0.00 | 0.05 | 0.05 | 32 | 1002.8 |
| 20260507221626 | 15 | 332 | 4.8 | 4.8 | 0.00 | 0.05 | 0.05 | 32 | 1002.8 |
| 20260507221122 | 15 | 295 | 1.6 | 1.6 | 0.00 | 0.05 | 0.05 | 34 | 1002.7 |
| 20260507220620 | 15 | 338 | 3.2 | 3.2 | 0.00 | 0.05 | 0.05 | 37 | 1002.8 |
| 20260507220117 | 15 | 265 | 3.2 | 4.8 | 0.00 | 0.05 | 0.05 | 33 | 1002.8 |
| 20260507215613 | 15 | 279 | 3.2 | 3.2 | 0.00 | 0.05 | 0.05 | 35 | 1003.0 |
| 20260507215111 | 15 | 258 | 1.6 | 1.6 | 0.00 | 0.05 | 0.05 | 34 | 1002.7 |
| 20260507214608 | 15 | 270 | 4.8 | 4.8 | 0.00 | 0.05 | 0.05 | 36 | 1002.8 |
| 20260507214104 | 15 | 247 | 1.6 | 1.6 | 0.00 | 0.05 | 0.05 | 36 | 1002.9 |
| 20260507213600 | 16 | 243 | 0.0 | 1.6 | 0.00 | 0.05 | 0.05 | 33 | 1002.8 |
| 20260507213058 | 15 | 270 | 3.2 | 4.8 | 0.00 | 0.05 | 0.05 | 34 | 1002.8 |
| 20260507212554 | 15 | 277 | 3.2 | 4.8 | 0.00 | 0.05 | 0.05 | 34 | 1003.1 |
| 20260507212051 | 15 | 273 | 4.8 | 4.8 | 0.00 | 0.05 | 0.05 | 35 | 1002.9 |
| 20260507211547 | 15 | 261 | 1.6 | 1.6 | 0.00 | 0.05 | 0.05 | 34 | 1002.7 |
| 20260507211043 | 15 | 255 | 3.2 | 3.2 | 0.00 | 0.05 | 0.05 | 38 | 1002.8 |
| 20260507210541 | 15 | 284 | 0.0 | 1.6 | 0.00 | 0.05 | 0.05 | 37 | 1002.8 |
| 20260507210038 | 16 | 298 | 3.2 | 3.2 | 0.00 | 0.05 | 0.05 | 34 | 1002.8 |
| 20260507205534 | 15 | 346 | 4.8 | 4.8 | 0.00 | 0.05 | 0.05 | 35 | 1002.7 |
| 20260507205031 | 15 | 299 | 3.2 | 3.2 | 0.00 | 0.05 | 0.05 | 35 | 1002.6 |
| 20260507204527 | 15 | 250 | 3.2 | 3.2 | 0.00 | 0.05 | 0.05 | 36 | 1002.6 |
| 20260507204025 | 15 | 255 | 3.2 | 3.2 | 0.00 | 0.05 | 0.05 | 34 | 1002.7 |
| 20260507203522 | 15 | 206 | 0.0 | 1.6 | 0.00 | 0.05 | 0.05 | 34 | 1002.2 |
| 20260507203020 | 15 | 256 | 0.0 | 0.0 | 0.00 | 0.05 | 0.05 | 39 | 1002.5 |
| 20260507202515 | 15 | 52 | 3.2 | 4.8 | 0.00 | 0.05 | 0.05 | 36 | 1002.5 |
| 20260507202012 | 15 | 265 | 0.0 | 1.6 | 0.00 | 0.05 | 0.05 | 36 | 1002.5 |
| 20260507201507 | 15 | 284 | 1.6 | 1.6 | 0.00 | 0.05 | 0.05 | 36 | 1002.4 |
| 20260507201003 | 14 | 323 | 3.2 | 3.2 | 0.00 | 0.05 | 0.05 | 35 | 1002.5 |
| 20260507200459 | 14 | 259 | 4.8 | 9.7 | 0.00 | 0.05 | 0.05 | 35 | 1002.8 |
| 20260507195955 | 14 | 261 | 3.2 | 4.8 | 0.00 | 0.05 | 0.05 | 36 | 1002.5 |
| 20260507195453 | 14 | 290 | 1.6 | 3.2 | 0.00 | 0.05 | 0.05 | 37 | 1002.5 |
| 20260507194950 | 16 | 320 | 3.2 | 3.2 | 0.00 | 0.05 | 0.05 | 34 | 1002.5 |
| 20260507194446 | 16 | 231 | 6.4 | 8.0 | 0.00 | 0.05 | 0.05 | 34 | 1002.6 |
| 20260507193942 | 16 | 285 | 1.6 | 1.6 | 0.00 | 0.05 | 0.05 | 35 | 1002.5 |
| 20260507193440 | 16 | 264 | 1.6 | 1.6 | 0.00 | 0.05 | 0.05 | 35 | 1002.6 |
| 20260507192936 | 15 | 293 | 4.8 | 8.0 | 0.00 | 0.05 | 0.05 | 37 | 1002.8 |
| 20260507192432 | 15 | 251 | 1.6 | 1.6 | 0.00 | 0.05 | 0.05 | 35 | 1002.8 |
| 20260507191930 | 15 | 292 | 0.0 | 0.0 | 0.00 | 0.05 | 0.05 | 34 | 1002.9 |
| 20260507191425 | 16 | 243 | 3.2 | 3.2 | 0.00 | 0.05 | 0.05 | 37 | 1003.0 |
| 20260507190922 | 15 | 225 | 6.4 | 11.3 | 0.00 | 0.05 | 0.05 | 34 | 1002.9 |
| 20260507190420 | 15 | 268 | 4.8 | 4.8 | 0.00 | 0.05 | 0.05 | 35 | 1003.1 |
| 20260507185919 | 16 | 323 | 8.0 | 9.7 | 0.00 | 0.05 | 0.05 | 34 | 1003.0 |
| 20260507185416 | 15 | 283 | 8.0 | 9.7 | 0.00 | 0.05 | 0.05 | 35 | 1003.0 |
| 20260507184913 | 15 | 23 | 0.0 | 0.0 | 0.00 | 0.05 | 0.05 | 37 | 1003.0 |
| 20260507184410 | 15 | 314 | 4.8 | 8.0 | 0.00 | 0.05 | 0.05 | 38 | 1002.8 |
| 20260507183907 | 15 | 303 | 6.4 | 11.3 | 0.00 | 0.05 | 0.05 | 38 | 1003.2 |
| 20260507183404 | 16 | 255 | 4.8 | 8.0 | 0.00 | 0.05 | 0.05 | 37 | 1003.2 |
| 20260507182902 | 15 | 312 | 4.8 | 8.0 | 0.00 | 0.05 | 0.05 | 39 | 1002.9 |
| 20260507182357 | 14 | 279 | 3.2 | 4.8 | 0.00 | 0.05 | 0.05 | 41 | 1002.9 |
| 20260507181854 | 14 | 266 | 6.4 | 9.7 | 0.00 | 0.05 | 0.05 | 40 | 1003.1 |
| 20260507181349 | 15 | 304 | 3.2 | 3.2 | 0.00 | 0.05 | 0.05 | 42 | 1003.2 |
| 20260507180847 | 15 | 203 | 6.4 | 8.0 | 0.00 | 0.05 | 0.05 | 43 | 1003.3 |
| 20260507180343 | 15 | 225 | 6.4 | 8.0 | 0.00 | 0.05 | 0.05 | 44 | 1003.2 |
| 20260507175839 | 15 | 331 | 4.8 | 4.8 | 0.00 | 0.05 | 0.05 | 48 | 1003.2 |
| 20260507175337 | 13 | 245 | 4.8 | 4.8 | 0.00 | 0.05 | 0.05 | 55 | 1003.0 |
| 20260507174834 | 13 | 273 | 4.8 | 8.0 | 0.00 | 0.05 | 0.05 | 54 | 1003.2 |
| 20260507174331 | 13 | 294 | 1.6 | 3.2 | 0.00 | 0.05 | 0.05 | 54 | 1003.3 |
| 20260507173829 | 15 | 310 | 1.6 | 3.2 | 0.00 | 0.05 | 0.05 | 51 | 1003.4 |
| 20260507173326 | 15 | 337 | 8.0 | 9.7 | 0.00 | 0.05 | 0.05 | 51 | 1003.1 |
| 20260507172822 | 15 | 256 | 3.2 | 3.2 | 0.00 | 0.05 | 0.05 | 54 | 1003.3 |
| 20260507172319 | 14 | 257 | 6.4 | 8.0 | 0.00 | 0.05 | 0.05 | 52 | 1003.3 |
| 20260507171814 | 14 | 0 | 6.4 | 8.0 | 0.00 | 0.05 | 0.05 | 54 | 1003.4 |
| 20260507171312 | 15 | 233 | 6.4 | 8.0 | 0.00 | 0.05 | 0.05 | 56 | 1003.2 |
| 20260507170809 | 13 | 260 | 6.4 | 9.7 | 0.00 | 0.05 | 0.05 | 56 | 1003.3 |
| 20260507170305 | 13 | 263 | 4.8 | 9.7 | 0.00 | 0.05 | 0.05 | 54 | 1003.3 |
| 20260507165801 | 14 | 290 | 4.8 | 4.8 | 0.00 | 0.05 | 0.05 | 52 | 1003.3 |
| 20260507165257 | 15 | 225 | 4.8 | 4.8 | 0.00 | 0.05 | 0.05 | 53 | 1003.3 |
| 20260507164753 | 14 | 242 | 1.6 | 3.2 | 0.00 | 0.05 | 0.05 | 56 | 1003.4 |
| 20260507164250 | 13 | 248 | 1.6 | 1.6 | 0.00 | 0.05 | 0.05 | 58 | 1003.4 |
| 20260507163748 | 14 | 267 | 4.8 | 4.8 | 0.00 | 0.05 | 0.05 | 56 | 1003.5 |
| 20260507163245 | 15 | 232 | 3.2 | 3.2 | 0.00 | 0.05 | 0.05 | 54 | 1003.7 |
| 20260507162741 | 15 | 241 | 3.2 | 3.2 | 0.00 | 0.05 | 0.05 | 56 | 1003.4 |
| 20260507162237 | 14 | 277 | 4.8 | 4.8 | 0.00 | 0.05 | 0.05 | 55 | 1003.6 |
| 20260507161734 | 15 | 296 | 4.8 | 8.0 | 0.00 | 0.05 | 0.05 | 55 | 1003.5 |
| 20260507161231 | 14 | 243 | 0.0 | 0.0 | 0.00 | 0.05 | 0.05 | 56 | 1003.6 |
| 20260507160726 | 13 | 292 | 0.0 | 1.6 | 0.00 | 0.05 | 0.05 | 58 | 1003.9 |
| 20260507160223 | 13 | 240 | 1.6 | 3.2 | 0.00 | 0.05 | 0.05 | 56 | 1003.8 |
| 20260507155719 | 13 | 237 | 1.6 | 1.6 | 0.00 | 0.05 | 0.05 | 55 | 1003.5 |
| 20260507155215 | 13 | 292 | 4.8 | 4.8 | 0.00 | 0.05 | 0.05 | 55 | 1003.9 |
| 20260507154712 | 15 | 216 | 3.2 | 3.2 | 0.00 | 0.05 | 0.05 | 52 | 1004.1 |
| 20260507154210 | 14 | 249 | 1.6 | 1.6 | 0.00 | 0.05 | 0.05 | 53 | 1003.8 |
| 20260507153707 | 14 | 296 | 3.2 | 4.8 | 0.00 | 0.05 | 0.05 | 53 | 1004.1 |
| 20260507153203 | 15 | 227 | 4.8 | 4.8 | 0.00 | 0.05 | 0.05 | 55 | 1004.0 |
| 20260507152659 | 15 | 294 | 1.6 | 1.6 | 0.00 | 0.05 | 0.05 | 56 | 1004.1 |
| 20260507152155 | 15 | 263 | 3.2 | 3.2 | 0.00 | 0.05 | 0.05 | 56 | 1004.2 |
| 20260507151651 | 15 | 249 | 1.6 | 1.6 | 0.00 | 0.05 | 0.05 | 59 | 1004.0 |
| 20260507151148 | 14 | 275 | 0.0 | 1.6 | 0.00 | 0.05 | 0.05 | 55 | 1004.0 |
| 20260507150645 | 14 | 252 | 1.6 | 1.6 | 0.00 | 0.05 | 0.05 | 58 | 1004.1 |
| 20260507150142 | 13 | 251 | 0.0 | 1.6 | 0.00 | 0.05 | 0.05 | 63 | 1004.2 |
| 20260507145637 | 13 | 272 | 1.6 | 3.2 | 0.00 | 0.05 | 0.05 | 60 | 1003.8 |
| 20260507145135 | 13 | 311 | 3.2 | 3.2 | 0.00 | 0.05 | 0.05 | 60 | 1004.0 |
| 20260507144631 | 13 | 270 | 1.6 | 1.6 | 0.00 | 0.05 | 0.05 | 57 | 1004.3 |
| 20260507144130 | 13 | 245 | 0.0 | 0.0 | 0.00 | 0.05 | 0.05 | 63 | 1004.3 |
| 20260507143626 | 13 | 254 | 0.0 | 0.0 | 0.00 | 0.05 | 0.05 | 61 | 1004.2 |
| 20260507143123 | 13 | 249 | 3.2 | 3.2 | 0.00 | 0.05 | 0.05 | 61 | 1004.2 |
| 20260507142619 | 13 | 254 | 4.8 | 4.8 | 0.00 | 0.05 | 0.05 | 62 | 1004.1 |
| 20260507142116 | 13 | 220 | 1.6 | 1.6 | 0.00 | 0.05 | 0.05 | 64 | 1004.5 |
| 20260507141612 | 13 | 244 | 1.6 | 1.6 | 0.00 | 0.05 | 0.05 | 68 | 1004.5 |
| 20260507141109 | 13 | 253 | 0.0 | 0.0 | 0.00 | 0.05 | 0.05 | 68 | 1004.5 |
| 20260507140605 | 12 | 338 | 0.0 | 3.2 | 0.00 | 0.05 | 0.05 | 70 | 1004.5 |
| 20260507135600 | 12 | 310 | 1.6 | 3.2 | 0.00 | 0.05 | 0.05 | 72 | 1004.8 |
| 20260507135057 | 12 | 212 | 3.2 | 3.2 | 0.00 | 0.05 | 0.05 | 69 | 1004.9 |
| 20260507134553 | 12 | 268 | 3.2 | 3.2 | 0.00 | 0.05 | 0.05 | 73 | 1004.6 |
| 20260507134049 | 12 | 238 | 4.8 | 4.8 | 0.00 | 0.05 | 0.05 | 73 | 1004.6 |
| 20260507133545 | 11 | 245 | 1.6 | 1.6 | 0.00 | 0.05 | 0.05 | 75 | 1004.7 |
| 20260507133043 | 11 | 260 | 4.8 | 4.8 | 0.00 | 0.05 | 0.05 | 75 | 1005.0 |
| 20260507132540 | 12 | 229 | 1.6 | 1.6 | 0.00 | 0.05 | 0.05 | 75 | 1004.9 |
| 20260507132036 | 11 | 221 | 1.6 | 1.6 | 0.00 | 0.05 | 0.05 | 73 | 1005.0 |
| 20260507131533 | 11 | 237 | 1.6 | 1.6 | 0.00 | 0.05 | 0.05 | 73 | 1005.0 |
| 20260507131031 | 11 | 296 | 1.6 | 1.6 | 0.00 | 0.05 | 0.05 | 77 | 1004.9 |
| 20260507130527 | 11 | 236 | 1.6 | 1.6 | 0.00 | 0.05 | 0.05 | 76 | 1004.9 |
| 20260507130026 | 10 | 279 | 0.0 | 0.0 | 0.00 | 0.05 | 0.05 | 77 | 1005.1 |
| 20260507125524 | 10 | 279 | 1.6 | 1.6 | 0.00 | 0.05 | 0.05 | 76 | 1005.1 |
| 20260507125021 | 10 | 295 | 0.0 | 0.0 | 0.00 | 0.05 | 0.05 | 75 | 1005.1 |
| 20260507124517 | 10 | 220 | 0.0 | 0.0 | 0.00 | 0.05 | 0.05 | 77 | 1005.0 |
| 20260507124015 | 10 | 304 | 1.6 | 1.6 | 0.00 | 0.05 | 0.05 | 80 | 1005.0 |
| 20260507123513 | 10 | 257 | 0.0 | 0.0 | 0.00 | 0.05 | 0.05 | 81 | 1005.1 |
| 20260507123010 | 10 | 298 | 1.6 | 1.6 | 0.00 | 0.05 | 0.05 | 84 | 1005.0 |
| 20260507122504 | 9 | 246 | 1.6 | 1.6 | 0.00 | 0.05 | 0.05 | 83 | 1005.3 |
| 20260507122001 | 9 | 261 | 1.6 | 1.6 | 0.00 | 0.05 | 0.05 | 84 | 1005.2 |
| 20260507121456 | 9 | 192 | 1.6 | 1.6 | 0.00 | 0.05 | 0.05 | 84 | 1005.4 |
| 20260507120953 | 9 | 258 | 0.0 | 1.6 | 0.00 | 0.05 | 0.05 | 89 | 1005.2 |
| 20260507120449 | 8 | 204 | 1.6 | 1.6 | 0.00 | 0.05 | 0.05 | 88 | 1005.3 |
| 20260507115946 | 8 | 213 | 1.6 | 3.2 | 0.00 | 0.05 | 0.05 | 89 | 1005.2 |
| 20260507115442 | 8 | 294 | 1.6 | 1.6 | 0.00 | 0.05 | 0.05 | 94 | 1005.2 |
| 20260507114938 | 7 | 240 | 0.0 | 0.0 | 0.00 | 0.05 | 0.05 | 97 | 1005.2 |
| 20260507114434 | 7 | 259 | 0.0 | 0.0 | 0.00 | 0.05 | 0.05 | 99 | 1005.3 |
| 20260507113932 | 7 | 265 | 0.0 | 0.0 | 0.00 | 0.05 | 0.05 | 99 | 1005.0 |
| 20260507113428 | 7 | 260 | 0.0 | 0.0 | 0.00 | 0.05 | 0.05 | 99 | 1005.1 |
| 20260507112926 | 7 | 289 | 0.0 | 0.0 | 0.00 | 0.05 | 0.05 | 99 | 1004.9 |
| 20260507112423 | 6 | 262 | 0.0 | 0.0 | 0.00 | 0.05 | 0.05 | 99 | 1005.3 |
| 20260507111920 | 6 | 251 | 0.0 | 0.0 | 0.00 | 0.05 | 0.05 | 99 | 1005.3 |
| 20260507111418 | 6 | 255 | 0.0 | 0.0 | 0.00 | 0.05 | 0.05 | 99 | 1005.2 |
| 20260507110914 | 6 | 259 | 0.0 | 0.0 | 0.00 | 0.05 | 0.05 | 99 | 1005.4 |
| 20260507110410 | 6 | 258 | 0.0 | 0.0 | 0.00 | 0.05 | 0.05 | 99 | 1005.5 |
| 20260507105907 | 6 | 251 | 0.0 | 0.0 | 0.00 | 0.05 | 0.05 | 99 | 1005.4 |
| 20260507105403 | 6 | 273 | 0.0 | 0.0 | 0.00 | 0.05 | 0.05 | 99 | 1005.6 |
| 20260507104900 | 6 | 251 | 0.0 | 0.0 | 0.00 | 0.05 | 0.05 | 99 | 1005.6 |
| 20260507104357 | 6 | 248 | 0.0 | 0.0 | 0.00 | 0.05 | 0.05 | 99 | 1005.8 |
| 20260507103853 | 6 | 249 | 0.0 | 0.0 | 0.00 | 0.05 | 0.05 | 99 | 1005.7 |
| 20260507103350 | 6 | 272 | 0.0 | 0.0 | 0.00 | 0.05 | 0.05 | 99 | 1005.3 |
| 20260507102846 | 6 | 248 | 0.0 | 0.0 | 0.00 | 0.05 | 0.05 | 99 | 1005.6 |
| 20260507102342 | 6 | 248 | 0.0 | 0.0 | 0.00 | 0.05 | 0.05 | 99 | 1005.6 |
| 20260507101839 | 6 | 256 | 0.0 | 0.0 | 0.00 | 0.05 | 0.05 | 99 | 1005.4 |
| 20260507101333 | 6 | 250 | 0.0 | 0.0 | 0.00 | 0.05 | 0.05 | 99 | 1005.6 |
| 20260507100831 | 6 | 248 | 0.0 | 0.0 | 0.00 | 0.05 | 0.05 | 99 | 1005.6 |
| 20260507100328 | 6 | 259 | 0.0 | 0.0 | 0.00 | 0.05 | 0.05 | 99 | 1005.6 |
| 20260507095827 | 6 | 248 | 0.0 | 0.0 | 0.00 | 0.05 | 0.05 | 99 | 1005.3 |
| 20260507095322 | 6 | 248 | 0.0 | 0.0 | 0.00 | 0.05 | 0.05 | 99 | 1005.1 |
| 20260507094820 | 6 | 252 | 0.0 | 0.0 | 0.00 | 0.05 | 0.05 | 99 | 1005.3 |
| 20260507094316 | 6 | 252 | 0.0 | 0.0 | 0.00 | 0.05 | 0.05 | 99 | 1005.0 |
| 20260507093813 | 6 | 252 | 0.0 | 0.0 | 0.00 | 0.05 | 0.05 | 99 | 1005.1 |
| 20260507093312 | 6 | 252 | 0.0 | 0.0 | 0.00 | 0.05 | 0.05 | 99 | 1004.8 |
| 20260507092809 | 6 | 257 | 0.0 | 0.0 | 0.00 | 0.05 | 0.05 | 99 | 1004.7 |
| 20260507092307 | 6 | 258 | 0.0 | 0.0 | 0.00 | 0.05 | 0.05 | 99 | 1004.3 |
| 20260507091802 | 6 | 264 | 0.0 | 0.0 | 0.00 | 0.05 | 0.05 | 99 | 1004.8 |
| 20260507091259 | 6 | 255 | 0.0 | 0.0 | 0.00 | 0.05 | 0.05 | 99 | 1004.9 |
| 20260507090759 | 6 | 258 | 0.0 | 0.0 | 0.00 | 0.05 | 0.05 | 99 | 1005.1 |
| 20260507090256 | 6 | 267 | 0.0 | 0.0 | 0.00 | 0.05 | 0.05 | 99 | 1004.9 |
| 20260507085753 | 7 | 257 | 0.0 | 0.0 | 0.00 | 0.05 | 0.05 | 99 | 1005.2 |
| 20260507085250 | 7 | 248 | 0.0 | 0.0 | 0.00 | 0.05 | 0.05 | 99 | 1005.0 |
| 20260507084747 | 7 | 239 | 0.0 | 0.0 | 0.00 | 0.05 | 0.05 | 99 | 1004.9 |
| 20260507084243 | 7 | 250 | 0.0 | 0.0 | 0.00 | 0.05 | 0.05 | 99 | 1005.0 |
| 20260507083741 | 7 | 254 | 0.0 | 0.0 | 0.00 | 0.05 | 0.05 | 99 | 1005.0 |
| 20260507083237 | 7 | 259 | 0.0 | 0.0 | 0.00 | 0.05 | 0.05 | 99 | 1005.2 |
| 20260507082733 | 7 | 269 | 0.0 | 0.0 | 0.00 | 0.05 | 0.05 | 99 | 1004.8 |
| 20260507082229 | 7 | 252 | 0.0 | 0.0 | 0.00 | 0.05 | 0.05 | 99 | 1005.3 |
| 20260507081726 | 7 | 258 | 0.0 | 0.0 | 0.00 | 0.05 | 0.05 | 99 | 1005.0 |
| 20260507081222 | 7 | 258 | 0.0 | 0.0 | 0.00 | 0.05 | 0.05 | 99 | 1004.9 |
| 20260507080719 | 7 | 258 | 0.0 | 0.0 | 0.00 | 0.05 | 0.05 | 99 | 1004.9 |
| 20260507080215 | 7 | 249 | 0.0 | 0.0 | 0.00 | 0.05 | 0.05 | 99 | 1004.7 |
| 20260507075711 | 7 | 252 | 0.0 | 0.0 | 0.00 | 0.05 | 0.05 | 99 | 1004.6 |
| 20260507075207 | 7 | 271 | 0.0 | 0.0 | 0.00 | 0.05 | 0.05 | 99 | 1004.5 |
| 20260507074703 | 7 | 274 | 0.0 | 0.0 | 0.00 | 0.05 | 0.05 | 99 | 1004.8 |
| 20260507074202 | 7 | 263 | 0.0 | 0.0 | 0.00 | 0.05 | 0.05 | 99 | 1004.5 |
| 20260507073658 | 7 | 260 | 0.0 | 0.0 | 0.00 | 0.05 | 0.05 | 99 | 1004.7 |
| 20260507073154 | 8 | 283 | 0.0 | 0.0 | 0.00 | 0.05 | 0.05 | 99 | 1004.8 |
| 20260507072652 | 8 | 257 | 0.0 | 0.0 | 0.00 | 0.05 | 0.05 | 99 | 1004.7 |
| 20260507072149 | 8 | 256 | 0.0 | 0.0 | 0.00 | 0.05 | 0.05 | 99 | 1004.6 |
| 20260507071647 | 8 | 247 | 0.0 | 0.0 | 0.00 | 0.05 | 0.05 | 99 | 1004.6 |
| 20260507071143 | 8 | 272 | 0.0 | 0.0 | 0.00 | 0.05 | 0.05 | 99 | 1004.5 |
| 20260507070640 | 8 | 259 | 0.0 | 0.0 | 0.00 | 0.05 | 0.05 | 99 | 1004.5 |
| 20260507070137 | 8 | 253 | 0.0 | 0.0 | 0.00 | 0.05 | 0.05 | 99 | 1004.7 |
| 20260507065633 | 8 | 246 | 0.0 | 0.0 | 0.00 | 0.05 | 0.05 | 99 | 1004.3 |
| 20260507065130 | 8 | 246 | 0.0 | 0.0 | 0.00 | 0.05 | 0.05 | 99 | 1004.2 |
| 20260507064628 | 8 | 251 | 0.0 | 0.0 | 0.00 | 0.05 | 0.05 | 99 | 1004.2 |
| 20260507064127 | 8 | 256 | 0.0 | 0.0 | 0.00 | 0.05 | 0.05 | 99 | 1004.0 |
| 20260507063624 | 8 | 257 | 0.0 | 0.0 | 0.00 | 0.05 | 0.05 | 99 | 1003.8 |
| 20260507063121 | 8 | 259 | 0.0 | 0.0 | 0.00 | 0.05 | 0.05 | 99 | 1004.1 |
| 20260507062617 | 8 | 252 | 0.0 | 0.0 | 0.00 | 0.05 | 0.05 | 99 | 1004.0 |
| 20260507062115 | 8 | 252 | 0.0 | 0.0 | 0.00 | 0.05 | 0.05 | 99 | 1003.9 |
| 20260507061613 | 8 | 257 | 0.0 | 0.0 | 0.00 | 0.05 | 0.05 | 99 | 1003.8 |
| 20260507061111 | 8 | 263 | 0.0 | 0.0 | 0.00 | 0.05 | 0.05 | 99 | 1004.0 |
| 20260507060608 | 8 | 258 | 0.0 | 0.0 | 0.00 | 0.05 | 0.05 | 99 | 1003.5 |
| 20260507060104 | 8 | 259 | 0.0 | 0.0 | 0.00 | 0.05 | 0.05 | 99 | 1003.8 |
| 20260507055600 | 8 | 256 | 0.0 | 0.0 | 0.00 | 0.05 | 0.05 | 99 | 1003.8 |
| 20260507055056 | 8 | 257 | 0.0 | 0.0 | 0.00 | 0.05 | 0.05 | 99 | 1003.6 |
| 20260507054552 | 8 | 259 | 0.0 | 0.0 | 0.00 | 0.05 | 0.05 | 99 | 1003.5 |
| 20260507054049 | 8 | 274 | 0.0 | 0.0 | 0.00 | 0.05 | 0.05 | 99 | 1003.4 |
| 20260507053547 | 8 | 272 | 0.0 | 0.0 | 0.00 | 0.05 | 0.05 | 99 | 1003.7 |
| 20260507053046 | 8 | 266 | 0.0 | 0.0 | 0.00 | 0.05 | 0.05 | 99 | 1003.5 |
| 20260507052543 | 8 | 256 | 0.0 | 0.0 | 0.00 | 0.05 | 0.05 | 99 | 1003.6 |
| 20260507052039 | 8 | 259 | 0.0 | 0.0 | 0.00 | 0.05 | 0.05 | 99 | 1003.4 |
| 20260507051537 | 8 | 257 | 0.0 | 0.0 | 0.00 | 0.05 | 0.05 | 99 | 1003.5 |
| 20260507051034 | 9 | 241 | 0.0 | 0.0 | 0.00 | 0.05 | 0.05 | 99 | 1003.4 |
| 20260507050530 | 9 | 252 | 0.0 | 0.0 | 0.00 | 0.05 | 0.05 | 99 | 1003.4 |
| 20260507050027 | 9 | 277 | 0.0 | 0.0 | 0.00 | 0.05 | 0.05 | 99 | 1003.4 |
| 20260507045524 | 9 | 232 | 0.0 | 0.0 | 0.00 | 0.05 | 0.05 | 99 | 1003.4 |
| 20260507045021 | 9 | 290 | 0.0 | 0.0 | 0.00 | 0.05 | 0.05 | 99 | 1003.3 |
| 20260507044518 | 9 | 279 | 0.0 | 0.0 | 0.00 | 0.05 | 0.05 | 99 | 1003.7 |
| 20260507044014 | 9 | 276 | 0.0 | 0.0 | 0.00 | 0.05 | 0.05 | 99 | 1003.6 |
| 20260507043510 | 10 | 254 | 0.0 | 0.0 | 0.13 | 0.05 | 0.05 | 99 | 1003.6 |
| 20260507043008 | 10 | 261 | 0.0 | 0.0 | 0.13 | 0.05 | 0.05 | 99 | 1003.2 |
| 20260507042503 | 10 | 307 | 0.0 | 0.0 | 0.00 | 0.03 | 0.03 | 99 | 1003.3 |
| 20260507041959 | 10 | 264 | 0.0 | 0.0 | 0.00 | 0.03 | 0.03 | 99 | 1003.5 |
| 20260507041456 | 10 | 236 | 0.0 | 0.0 | 0.00 | 0.03 | 0.03 | 99 | 1003.9 |
| 20260507040953 | 10 | 241 | 0.0 | 0.0 | 0.18 | 0.03 | 0.03 | 99 | 1003.9 |
| 20260507040449 | 10 | 270 | 0.0 | 0.0 | 0.30 | 0.03 | 0.03 | 99 | 1003.6 |
| 20260507035945 | 11 | 283 | 1.6 | 1.6 | 0.61 | 1.24 | 1.24 | 99 | 1003.5 |
| 20260507035442 | 11 | 254 | 0.0 | 0.0 | 0.79 | 1.24 | 1.24 | 99 | 1003.5 |
| 20260507034939 | 11 | 268 | 0.0 | 0.0 | 0.18 | 1.14 | 1.14 | 99 | 1003.5 |
| 20260507034435 | 11 | 268 | 0.0 | 0.0 | 0.00 | 1.12 | 1.12 | 99 | 1003.2 |
| 20260507033934 | 11 | 302 | 0.0 | 0.0 | 0.00 | 1.12 | 1.12 | 99 | 1002.8 |
| 20260507033431 | 11 | 235 | 0.0 | 0.0 | 0.00 | 1.12 | 1.12 | 99 | 1002.9 |
| 20260507032928 | 12 | 301 | 0.0 | 0.0 | 0.00 | 1.12 | 1.12 | 99 | 1003.0 |
| 20260507032425 | 12 | 284 | 0.0 | 0.0 | 0.13 | 1.12 | 1.12 | 99 | 1002.8 |
| 20260507031921 | 12 | 229 | 0.0 | 0.0 | 0.13 | 1.12 | 1.12 | 99 | 1002.7 |
| 20260507031418 | 13 | 213 | 0.0 | 0.0 | 0.00 | 1.09 | 1.09 | 99 | 1002.5 |
| 20260507030914 | 13 | 269 | 0.0 | 0.0 | 0.00 | 1.09 | 1.09 | 99 | 1002.3 |
| 20260507030412 | 13 | 256 | 0.0 | 0.0 | 0.00 | 1.09 | 1.09 | 99 | 1002.5 |
| 20260507025908 | 13 | 251 | 0.0 | 0.0 | 0.00 | 1.09 | 1.09 | 99 | 1002.4 |
| 20260507025406 | 13 | 255 | 0.0 | 0.0 | 0.00 | 1.09 | 1.09 | 99 | 1002.4 |
| 20260507024904 | 13 | 242 | 0.0 | 0.0 | 0.00 | 1.09 | 1.09 | 99 | 1002.3 |
| 20260507024400 | 13 | 229 | 0.0 | 0.0 | 0.00 | 1.09 | 1.09 | 99 | 1002.5 |
| 20260507023856 | 13 | 246 | 0.0 | 0.0 | 0.18 | 1.09 | 1.09 | 99 | 1002.2 |
| 20260507023353 | 13 | 251 | 0.0 | 0.0 | 0.18 | 1.09 | 1.09 | 99 | 1002.3 |
| 20260507022851 | 13 | 246 | 0.0 | 0.0 | 0.00 | 1.07 | 1.07 | 99 | 1002.4 |
| 20260507022347 | 13 | 245 | 0.0 | 0.0 | 0.00 | 1.07 | 1.07 | 99 | 1002.4 |
| 20260507021843 | 13 | 255 | 0.0 | 0.0 | 0.00 | 1.07 | 1.07 | 99 | 1002.3 |
| 20260507021338 | 13 | 255 | 0.0 | 0.0 | 0.00 | 1.07 | 1.07 | 99 | 1002.3 |
| 20260507020837 | 13 | 250 | 0.0 | 0.0 | 0.00 | 1.07 | 1.07 | 99 | 1002.1 |
| 20260507020333 | 13 | 238 | 0.0 | 0.0 | 0.00 | 1.07 | 1.07 | 99 | 1002.3 |
| 20260507015830 | 13 | 238 | 0.0 | 0.0 | 0.00 | 1.07 | 1.07 | 99 | 1002.2 |
| 20260507015328 | 13 | 235 | 0.0 | 0.0 | 0.00 | 1.07 | 1.07 | 99 | 1002.1 |
| 20260507014825 | 13 | 227 | 0.0 | 0.0 | 0.00 | 1.07 | 1.07 | 99 | 1002.5 |
| 20260507014321 | 13 | 242 | 0.0 | 0.0 | 0.00 | 1.07 | 1.07 | 99 | 1002.3 |
| 20260507013818 | 13 | 244 | 0.0 | 0.0 | 0.00 | 1.07 | 1.07 | 99 | 1002.6 |
| 20260507013315 | 13 | 244 | 0.0 | 0.0 | 0.00 | 1.07 | 1.07 | 99 | 1002.6 |
| 20260507012813 | 13 | 229 | 0.0 | 0.0 | 0.00 | 1.07 | 1.07 | 99 | 1002.5 |
| 20260507012308 | 13 | 222 | 0.0 | 0.0 | 0.00 | 1.07 | 1.07 | 99 | 1002.6 |
| 20260507011806 | 13 | 229 | 0.0 | 0.0 | 0.00 | 1.07 | 1.07 | 99 | 1002.5 |
| 20260507011302 | 13 | 251 | 0.0 | 0.0 | 0.00 | 1.07 | 1.07 | 99 | 1002.4 |
| 20260507010802 | 13 | 231 | 0.0 | 0.0 | 0.00 | 1.07 | 1.07 | 99 | 1002.6 |
| 20260507010258 | 13 | 241 | 0.0 | 0.0 | 0.00 | 1.07 | 1.07 | 99 | 1002.6 |
| 20260507005755 | 13 | 233 | 0.0 | 0.0 | 0.00 | 1.07 | 1.07 | 99 | 1002.6 |